| time (UTC) | temp C | wind direction | speed KPH | gust KPH | rain 1hr cm | rain 24hr cm | rain mn cm | humidity % | barometer mb |
| 20260903024532 | -17 | 186 | 0.0 | 0.0 | 0.00 | 0.00 | 0.00 | 1015.6 | |
| 20260903023028 | -17 | 187 | 0.0 | 0.0 | 0.00 | 0.00 | 0.00 | 1015.7 | |
| 20260903021554 | -17 | 186 | 0.0 | 0.0 | 0.00 | 0.00 | 0.00 | 1015.7 | |
| 20260903020054 | -17 | 186 | 0.0 | 0.0 | 0.00 | 0.00 | 0.00 | 1015.5 | |
| 20260903014542 | -17 | 186 | 0.0 | 0.0 | 0.00 | 0.00 | 0.00 | 1015.6 | |
| 20260903013047 | -17 | 187 | 0.0 | 0.0 | 0.00 | 0.00 | 0.00 | 1015.5 | |
| 20260903011534 | -17 | 186 | 0.0 | 0.0 | 0.00 | 0.00 | 0.00 | 1015.4 | |
| 20260903010032 | -17 | 186 | 0.0 | 0.0 | 0.00 | 0.00 | 0.00 | 1015.2 | |
| 20260903004602 | -17 | 186 | 0.0 | 0.0 | 0.00 | 0.00 | 0.00 | 1015.1 | |
| 20260903003054 | -17 | 186 | 0.0 | 0.0 | 0.00 | 0.00 | 0.00 | 1015.1 | |
| 20260903001545 | -17 | 186 | 0.0 | 0.0 | 0.00 | 0.00 | 0.00 | 1015.0 | |
| 20260903000044 | -17 | 186 | 0.0 | 1.6 | 0.00 | 0.00 | 0.00 | 1015.0 | |
| 20260902234536 | -17 | 200 | 0.0 | 3.2 | 0.00 | 0.00 | 0.00 | 1015.0 | |
| 20260902233032 | -17 | 200 | 0.0 | 4.8 | 0.00 | 0.00 | 0.00 | 1015.0 | |
| 20260902231526 | -17 | 230 | 0.0 | 9.7 | 0.00 | 0.00 | 0.00 | 1014.9 | |
| 20260902230024 | -17 | 198 | 1.6 | 8.0 | 0.00 | 0.00 | 0.00 | 1015.0 | |
| 20260902224521 | -17 | 195 | 1.6 | 9.7 | 0.00 | 0.00 | 0.00 | 1015.1 | |
| 20260902223030 | -17 | 230 | 1.6 | 6.4 | 0.00 | 0.00 | 0.00 | 1015.0 | |
| 20260902221509 | -17 | 196 | 1.6 | 12.9 | 0.00 | 0.00 | 0.00 | 1015.1 | |
| 20260902220005 | -17 | 196 | 1.6 | 8.0 | 0.00 | 0.00 | 0.00 | 1015.1 | |
| 20260902214501 | -17 | 215 | 3.2 | 12.9 | 0.00 | 0.00 | 0.00 | 1015.2 | |
| 20260902213059 | -17 | 193 | 0.0 | 8.0 | 0.00 | 0.00 | 0.00 | 1015.3 | |
| 20260902211524 | -17 | 330 | 1.6 | 9.7 | 0.00 | 0.00 | 0.00 | 1015.4 | |
| 20260902210020 | -17 | 228 | 1.6 | 9.7 | 0.00 | 0.00 | 0.00 | 1015.5 | |
| 20260902204528 | -17 | 215 | 3.2 | 11.3 | 0.00 | 0.00 | 0.00 | 1015.5 | |
| 20260902203012 | -17 | 186 | 1.6 | 8.0 | 0.00 | 0.00 | 0.00 | 1015.7 | |
| 20260902201510 | -17 | 225 | 3.2 | 9.7 | 0.00 | 0.00 | 0.00 | 1015.8 | |
| 20260902200011 | -17 | 96 | 3.2 | 9.7 | 0.00 | 0.00 | 0.00 | 1015.9 | |
| 20260902194539 | -17 | 345 | 1.6 | 14.5 | 0.00 | 0.00 | 0.00 | 1016.1 | |
| 20260902193036 | -17 | 259 | 1.6 | 8.0 | 0.00 | 0.00 | 0.00 | 1016.2 | |
| 20260902191530 | -17 | 189 | 3.2 | 16.1 | 0.00 | 0.00 | 0.00 | 1016.3 | |
| 20260902190027 | -17 | 198 | 3.2 | 11.3 | 0.00 | 0.00 | 0.00 | 1016.5 | |
| 20260902184529 | -17 | 193 | 0.0 | 8.0 | 0.00 | 0.00 | 0.00 | 1016.6 | |
| 20260902183035 | -17 | 321 | 1.6 | 8.0 | 0.00 | 0.00 | 0.00 | 1016.8 | |
| 20260902181510 | -17 | 207 | 0.0 | 6.4 | 0.00 | 0.00 | 0.00 | 1016.8 | |
| 20260902180007 | -17 | 242 | 6.4 | 12.9 | 0.00 | 0.00 | 0.00 | 1016.9 | |
| 20260902174602 | -17 | 213 | 3.2 | 12.9 | 0.00 | 0.00 | 0.00 | 1017.0 | |
| 20260902173114 | -17 | 169 | 6.4 | 16.1 | 0.00 | 0.00 | 0.00 | 1017.3 | |
| 20260902171551 | -17 | 184 | 3.2 | 14.5 | 0.00 | 0.00 | 0.00 | 1017.5 | |
| 20260902170049 | -17 | 248 | 1.6 | 12.9 | 0.00 | 0.00 | 0.00 | 1017.5 | |
| 20260902164543 | -17 | 179 | 3.2 | 9.7 | 0.00 | 0.00 | 0.00 | 1017.5 | |
| 20260902163042 | -17 | 229 | 3.2 | 11.3 | 0.00 | 0.00 | 0.00 | 1017.6 | |
| 20260902161531 | -17 | 264 | 0.0 | 8.0 | 0.00 | 0.00 | 0.00 | 1017.7 | |
| 20260902160024 | -17 | 190 | 1.6 | 9.7 | 0.00 | 0.00 | 0.00 | 1017.7 | |
| 20260902154519 | -17 | 227 | 1.6 | 8.0 | 0.00 | 0.00 | 0.00 | 1017.8 | |
| 20260902153015 | -17 | 178 | 1.6 | 12.9 | 0.00 | 0.00 | 0.00 | 1017.8 | |
| 20260902151511 | -17 | 223 | 3.2 | 6.4 | 0.00 | 0.00 | 0.00 | 1017.9 | |
| 20260902150006 | -17 | 175 | 1.6 | 8.0 | 0.00 | 0.00 | 0.00 | 1017.9 | |
| 20260902144600 | -17 | 181 | 1.6 | 6.4 | 0.00 | 0.00 | 0.00 | 1017.9 | |
| 20260902143057 | -17 | 184 | 0.0 | 4.8 | 0.00 | 0.00 | 0.00 | 1017.9 | |
| 20260902141551 | -17 | 190 | 0.0 | 6.4 | 0.00 | 0.00 | 0.00 | 1017.9 | |
| 20260902140045 | -17 | 182 | 1.6 | 6.4 | 0.00 | 0.00 | 0.00 | 1017.9 | |
| 20260902134540 | -17 | 183 | 0.0 | 0.0 | 0.00 | 0.00 | 0.00 | 1017.8 | |
| 20260902133035 | -17 | 183 | 0.0 | 3.2 | 0.00 | 0.00 | 0.00 | 1017.9 | |
| 20260902131530 | -17 | 183 | 0.0 | 1.6 | 0.00 | 0.00 | 0.00 | 1018.0 | |
| 20260902130024 | -17 | 183 | 0.0 | 3.2 | 0.00 | 0.00 | 0.00 | 1018.0 | |
| 20260902124519 | -17 | 225 | 0.0 | 1.6 | 0.00 | 0.00 | 0.00 | 1017.9 | |
| 20260902123015 | -17 | 227 | 0.0 | 0.0 | 0.00 | 0.00 | 0.00 | 1017.8 | |
| 20260902121510 | -17 | 226 | 0.0 | 0.0 | 0.00 | 0.00 | 0.00 | 1017.7 | |
| 20260902120004 | -17 | 226 | 0.0 | 0.0 | 0.00 | 0.00 | 0.00 | 1017.6 | |
| 20260902114600 | -17 | 226 | 0.0 | 0.0 | 0.00 | 0.00 | 0.00 | 1017.5 | |
| 20260902113056 | -17 | 226 | 0.0 | 0.0 | 0.00 | 0.00 | 0.00 | 1017.3 | |
| 20260902111555 | -17 | 226 | 0.0 | 0.0 | 0.00 | 0.00 | 0.00 | 1017.2 | |
| 20260902110050 | -17 | 226 | 0.0 | 0.0 | 0.00 | 0.00 | 0.00 | 1017.1 | |
| 20260902104554 | -17 | 226 | 0.0 | 0.0 | 0.00 | 0.00 | 0.00 | 1017.1 | |
| 20260902103052 | -17 | 226 | 0.0 | 0.0 | 0.00 | 0.00 | 0.00 | 1017.0 | |
| 20260902101531 | -17 | 226 | 0.0 | 0.0 | 0.00 | 0.00 | 0.00 | 1017.1 | |
| 20260902100057 | -17 | 226 | 0.0 | 0.0 | 0.00 | 0.00 | 0.00 | 1017.1 | |
| 20260902094553 | -17 | 226 | 0.0 | 0.0 | 0.00 | 0.00 | 0.00 | 1017.2 | |
| 20260902093046 | -17 | 226 | 0.0 | 1.6 | 0.00 | 0.00 | 0.00 | 1017.1 | |
| 20260902091542 | -17 | 226 | 0.0 | 1.6 | 0.00 | 0.00 | 0.00 | 1016.9 | |
| 20260902090040 | -17 | 226 | 0.0 | 0.0 | 0.00 | 0.00 | 0.00 | 1016.8 | |
| 20260902084539 | -17 | 226 | 0.0 | 0.0 | 0.00 | 0.00 | 0.00 | 1016.8 | |
| 20260902083022 | -17 | 226 | 0.0 | 0.0 | 0.00 | 0.00 | 0.00 | 1016.6 | |
| 20260902081519 | -17 | 226 | 0.0 | 0.0 | 0.00 | 0.00 | 0.00 | 1016.6 | |
| 20260902080020 | -17 | 226 | 0.0 | 0.0 | 0.00 | 0.00 | 0.00 | 1016.5 | |
| 20260902074509 | -17 | 226 | 0.0 | 1.6 | 0.00 | 0.00 | 0.00 | 1016.3 | |
| 20260902073004 | -17 | 226 | 0.0 | 0.0 | 0.00 | 0.00 | 0.00 | 1016.2 | |
| 20260902071600 | -17 | 226 | 0.0 | 0.0 | 0.00 | 0.00 | 0.00 | 1016.2 | |
| 20260902070053 | -17 | 226 | 0.0 | 0.0 | 0.00 | 0.00 | 0.00 | 1016.4 | |
| 20260902064552 | -17 | 226 | 0.0 | 0.0 | 0.00 | 0.00 | 0.00 | 1016.4 | |
| 20260902063055 | -17 | 226 | 0.0 | 0.0 | 0.00 | 0.00 | 0.00 | 1016.4 | |
| 20260902061559 | -17 | 226 | 0.0 | 0.0 | 0.00 | 0.00 | 0.00 | 1016.5 | |
| 20260902060041 | -17 | 226 | 0.0 | 0.0 | 0.00 | 0.00 | 0.00 | 1016.5 | |
| 20260902054534 | -17 | 226 | 0.0 | 0.0 | 0.00 | 0.00 | 0.00 | 1016.6 | |
| 20260902053029 | -17 | 226 | 0.0 | 0.0 | 0.00 | 0.00 | 0.00 | 1016.5 | |
| 20260902051520 | -17 | 226 | 0.0 | 0.0 | 0.00 | 0.00 | 0.00 | 1016.4 | |
| 20260902050021 | -17 | 227 | 0.0 | 0.0 | 0.00 | 0.00 | 0.00 | 1016.4 | |
| 20260902044509 | -17 | 227 | 0.0 | 0.0 | 0.00 | 0.00 | 0.00 | 1016.5 | |
| 20260902043006 | -17 | 226 | 0.0 | 0.0 | 0.00 | 0.00 | 0.00 | 1016.4 | |
| 20260902041604 | -17 | 225 | 0.0 | 0.0 | 0.00 | 0.00 | 0.00 | 1016.6 | |
| 20260902040057 | -17 | 225 | 0.0 | 0.0 | 0.00 | 0.00 | 0.00 | 1016.6 | |
| 20260902034551 | -17 | 226 | 0.0 | 0.0 | 0.00 | 0.00 | 0.00 | 1016.4 | |
| 20260902033045 | -17 | 226 | 0.0 | 0.0 | 0.00 | 0.00 | 0.00 | 1016.4 | |
| 20260902031554 | -17 | 226 | 0.0 | 0.0 | 0.00 | 0.00 | 0.00 | 1016.5 | |
| 20260902030036 | -17 | 226 | 0.0 | 0.0 | 0.00 | 0.00 | 0.00 | 1016.5 |